CAPE
62 25 10 11 9 4 14 55 51 22 15 3 0 0 0 0 0 0 0 0 0 0 0 0 0 0 0 0 0 0 0 0 0 0 0 0 0 0 0 0 0 0 0 0 0
92 59 19 0 9 11 6 45 48 38 23 15 12 0 0 0 0 0 0 0 0 0 0 0 0 0 0 0 0 0 0 0 0 0 0 0 0 0 0 0 0 0 0 0 0
52 40 19 8 5 20 13 41 45 46 36 31 4 0 0 0 0 0 0 0 0 0 0 0 0 0 0 0 0 0 0 0 0 0 0 0 0 0 0 0 0 0 0 0 0
41 35 24 10 16 21 32 63 55 40 41 27 1 0 0 0 0 0 0 0 0 0 0 0 0 0 0 0 0 0 0 0 0 0 0 0 0 0 0 0 0 0 0 0 0
54 28 17 16 24 24 31 47 40 21 6 0 0 0 0 0 0 0 0 0 0 0 0 0 0 0 0 0 0 0 0 0 0 0 0 0 0 0 0 0 0 0 0 0 0
88 17 18 19 14 35 9 71 52 14 0 0 0 0 0 0 0 0 0 0 0 0 0 0 0 0 0 0 0 0 0 0 0 0 0 0 0 0 0 0 0 0 0 0 0
45 18 16 17 1 33 0 98 52 10 0 0 0 0 0 0 0 0 0 0 0 0 0 0 0 0 0 0 0 0 0 0 0 0 0 0 0 0 0 0 0 0 0 0 0
0 21 25 19 12 42 15 134 29 18 2 0 0 0 0 0 0 0 0 0 0 0 0 0 0 0 0 0 0 0 0 0 0 0 0 0 0 0 0 0 0 0 0 0 0
0 33 27 17 23 34 127 57 30 26 6 0 0 0 5 0 0 0 0 0 0 0 0 0 0 0 0 0 0 0 0 0 0 0 0 0 0 0 0 0 0 0 0 0 0
0 45 26 19 33 65 96 38 31 44 12 1 0 0 0 0 0 0 0 0 0 0 0 0 0 0 0 0 0 0 0 0 0 0 0 0 0 0 0 0 0 0 0 0 0
0 5 30 19 47 77 90 22 76 9 1 0 0 0 0 0 0 0 0 0 0 0 0 0 0 0 0 0 0 0 0 0 0 0 0 0 0 0 0 0 0 0 0 0 0
0 0 46 25 81 109 73 9 2 0 0 0 0 0 0 0 0 0 0 0 0 0 0 0 0 0 0 0 0 0 0 0 0 0 0 0 0 0 0 0 0 0 0 0 0
0 0 12 30 87 143 67 16 0 0 0 0 0 0 0 0 0 0 0 0 0 0 0 1 0 0 0 0 0 0 0 0 0 0 0 0 0 0 0 0 0 0 0 0 0
0 1 2 34 92 86 76 0 0 0 0 0 0 0 0 0 0 0 0 0 0 0 0 0 0 0 0 0 0 0 0 0 0 0 0 0 0 0 0 0 0 0 0 0 0
21 0 3 54 72 56 0 0 0 0 0 0 0 0 0 0 0 0 0 0 0 0 0 0 0 0 0 0 0 0 0 0 0 0 0 0 0 0 0 0 0 0 0 0 0
17 8 2 5 72 28 0 0 0 0 0 0 0 0 0 0 0 0 0 0 0 0 0 0 0 0 0 0 0 0 0 0 0 0 0 0 0 0 0 0 0 0 0 0 0
2 12 2 9 53 0 0 0 0 0 0 0 0 0 0 0 0 0 0 0 0 0 0 0 0 0 0 0 0 0 0 0 0 0 0 0 0 0 0 0 0 0 0 0 0
2 2 0 3 0 0 0 0 0 0 0 0 0 0 0 0 0 0 0 0 0 0 0 0 0 0 0 0 0 0 0 0 0 0 0 0 0 0 0 0 0 0 0 0 0
0 0 11 0 4 0 0 0 0 0 0 0 0 0 0 0 0 0 0 0 0 0 0 0 0 0 0 0 0 0 0 0 0 0 0 0 0 0 0 0 0 0 0 0 0
0 7 25 38 7 0 1 0 0 0 0 0 0 0 0 0 0 0 0 0 0 0 0 0 0 0 0 0 0 0 0 0 0 0 0 0 0 0 0 0 0 0 0 0 0
0 29 49 65 12 3 0 0 0 0 0 0 0 0 0 0 0 0 0 0 0 0 0 0 0 0 0 0 0 0 0 0 0 0 0 0 0 0 0 0 0 0 0 0 0
0 19 0 39 1 1 0 0 0 0 0 0 0 0 0 0 0 0 0 0 0 0 0 0 0 0 0 0 0 0 0 0 0 0 0 0 0 0 0 0 0 0 0 0 0
0 0 0 22 0 0 0 0 0 0 0 0 0 0 0 0 0 0 0 0 0 0 0 0 0 0 0 0 0 0 0 0 0 0 0 0 0 0 0 0 0 0 0 0 0
0 8 0 0 1 0 0 0 0 0 0 0 0 0 0 0 0 0 0 0 0 0 0 0 0 0 0 0 0 0 0 0 0 0 0 0 0 0 0 0 0 0 0 0 0
0 0 0 0 1 0 0 0 0 0 0 0 0 0 0 0 0 0 0 0 0 0 0 0 0 0 0 0 0 0 0 0 0 0 0 0 0 0 0 0 0 0 0 0 0
0 0 0 0 0 1 1 0 0 0 0 0 0 0 0 0 0 0 0 0 0 0 0 0 0 0 0 0 0 0 0 0 0 0 0 0 0 0 0 0 0 0 0 0 0
0 0 0 0 0 1 0 0 0 0 0 0 0 0 0 0 0 0 0 0 0 0 0 0 0 0 0 0 0 0 0 0 0 0 0 0 0 0 0 0 0 0 0 0 0
CIN
-3 -1 -16 -15 -15 -35 -44 -4 -5 -11 -18 -37 0 0 0 0 0 0 0 0 0 0 0 0 0 0 0 0 0 0 0 0 0 0 0 0 0 0 0 0 0 0 0 0 0
0 -1 -2 0 -13 -18 -53 -17 -8 -15 -13 -19 -23 -6 0 0 0 0 0 0 0 0 0 0 0 0 0 0 0 0 0 0 0 0 0 0 0 0 0 0 0 0 0 0 0
0 0 -2 -10 -12 -9 -33 -18 -10 -13 -8 -18 -31 0 0 0 0 0 0 0 0 0 0 0 0 0 0 0 0 0 0 0 0 0 0 0 0 0 0 0 0 0 0 0 0
0 0 -3 -7 -11 -3 -5 -41 -11 -13 -12 -23 -35 0 0 0 0 0 0 0 0 0 0 0 0 0 0 0 0 0 0 0 0 0 0 0 0 0 0 0 0 0 0 0 0
0 -1 -3 -5 -9 -13 -7 -5 -8 -12 -12 0 0 0 0 0 0 0 0 0 0 0 0 0 0 0 0 0 0 0 0 0 0 0 0 0 0 0 0 0 0 0 0 0 0
0 -7 -1 -6 -13 -12 -24 0 -2 -11 -2 0 0 -33 0 0 0 0 0 0 0 0 0 0 0 0 0 0 0 0 0 0 0 0 0 0 0 0 0 0 0 0 0 0 0
-15 -19 -8 -8 -13 -6 -1 0 -3 -21 0 0 0 0 0 0 0 0 0 0 0 0 0 0 0 0 0 0 0 0 0 0 0 0 0 0 0 0 0 0 0 0 0 0 0
0 -6 -1 -8 -14 -30 -51 0 -11 -29 -24 0 0 0 0 0 0 0 0 0 0 0 0 0 0 0 0 0 0 0 0 0 0 0 0 0 0 0 0 0 0 0 0 0 0
-3 -5 -1 -6 -16 -21 -3 -9 -3 -43 -35 0 0 0 -15 0 0 0 0 0 0 0 0 0 0 0 0 0 0 0 0 0 0 0 0 0 0 0 0 0 0 0 0 0 0
0 -1 -6 -8 -11 -13 -2 -12 -5 -8 -5 -2 0 0 0 0 0 0 0 0 0 0 0 0 0 0 0 0 0 0 0 0 0 0 0 0 0 0 0 0 0 0 0 0 0
0 -7 -7 -8 -8 -16 0 -3 0 -5 0 0 0 0 0 0 0 0 0 0 0 0 0 0 0 0 0 0 0 0 0 0 0 0 0 0 0 0 0 0 0 0 0 0 0
-7 0 0 -5 -5 -9 -1 -21 -7 -5 0 0 0 0 0 0 0 0 0 0 0 0 0 0 0 0 0 0 0 0 0 0 0 0 0 0 0 0 0 0 0 0 0 0 0
-10 0 -4 -4 -4 -1 -2 -13 0 0 0 0 0 0 0 0 0 0 0 0 0 0 0 0 0 0 0 0 0 0 0 0 0 0 0 0 0 0 0 0 0 0 0 0 0
-19 0 0 -1 0 0 0 0 0 0 0 0 0 0 0 0 0 0 0 0 0 0 0 0 0 0 0 0 0 0 0 0 0 0 0 0 0 0 0 0 0 0 0 0 0
-7 -1 0 -5 -2 0 -4 0 0 0 0 0 0 0 0 0 0 0 0 0 0 0 0 0 0 0 0 0 0 0 0 0 0 0 0 0 0 0 0 0 0 0 0 0 0
-7 -10 -1 0 -1 -5 0 0 0 0 -1 0 0 0 0 0 0 0 0 0 0 0 0 0 0 0 0 0 0 0 0 0 0 0 0 0 0 0 0 0 0 0 0 0 0
-12 -14 -1 0 -1 0 0 0 0 -4 0 0 0 0 0 0 0 0 0 0 0 0 0 0 0 0 0 0 0 0 0 0 0 0 0 0 0 0 0 0 0 0 0 0 0
0 -10 0 -4 0 0 0 0 0 0 0 0 0 0 0 0 0 0 0 0 0 0 0 0 0 0 0 0 0 0 0 0 0 0 0 0 0 0 0 0 0 0 0 0 0
0 0 -4 0 0 0 0 0 0 0 0 0 0 0 0 0 0 0 0 0 0 0 0 0 0 0 0 0 0 0 0 0 0 0 0 0 0 0 0 0 0 0 0 0 0
0 -3 -1 -4 0 0 0 0 0 0 0 0 0 0 0 0 0 0 0 0 0 0 0 0 0 0 0 0 0 0 0 0 0 0 0 0 0 0 0 0 0 0 0 0 0
0 -7 -7 -15 0 0 0 -1 0 0 0 0 0 0 0 0 0 0 0 0 0 0 0 0 0 0 0 0 0 0 0 0 0 0 0 0 0 0 0 0 0 0 0 0 0
0 -5 -3 -7 0 0 0 0 0 0 0 0 0 0 0 0 0 0 0 0 0 0 0 0 0 0 0 0 0 0 0 0 0 0 0 0 0 0 0 0 0 0 0 0 0
0 0 0 0 0 0 0 0 0 0 0 0 0 0 0 0 0 0 0 0 0 0 0 0 0 0 0 0 0 0 0 0 0 0 0 0 0 0 0 0 0 0 0 0 0
0 -35 0 0 0 0 0 0 0 0 0 0 0 0 0 0 0 0 0 0 0 0 0 0 0 0 0 0 0 0 0 0 0 0 0 0 0 0 0 0 0 0 0 0 0
0 0 0 0 -5 0 0 0 0 0 0 0 0 0 0 0 0 0 0 0 0 0 0 0 0 0 0 0 0 0 0 0 0 0 0 0 0 0 0 0 0 0 0 0 0
0 0 0 0 0 0 0 0 0 0 0 0 0 0 0 0 0 0 0 0 0 0 0 0 0 0 0 0 0 0 0 0 0 0 0 0 0 0 0 0 0 0 0 0 0
0 0 0 0 0 0 0 0 0 0 0 0 0 0 0 0 0 0 0 0 0 0 0 0 0 0 0 0 0 0 0 0 0 0 0 0 0 0 0 0 0 0 0 0 0
Wind_Speed
49 46 46 45 42 44 43 38 36 32 32 35 36 35 30 27 19 25 26 21 20 16 14 14 14 9 10 14 10 9 21 20 21 19 19 17 16 15 13 8 10 10 11 16 16
51 43 42 45 44 45 43 40 36 33 32 30 27 30 31 24 27 33 25 20 20 14 15 15 17 15 16 15 13 7 23 22 19 20 21 19 19 15 14 11 13 12 14 6 10
47 39 40 41 43 43 44 40 37 33 31 29 27 26 26 24 33 37 29 22 19 18 20 20 16 16 16 16 15 12 18 13 22 20 21 23 21 18 16 15 16 4 7 2 5
45 40 35 35 38 40 41 38 35 32 29 28 26 24 22 24 38 28 30 23 19 18 17 18 18 19 22 20 17 16 16 13 24 22 26 28 24 23 20 20 23 18 3 3 7
46 44 37 33 34 36 39 36 33 30 28 25 25 22 24 35 35 20 26 22 20 19 20 21 22 22 21 23 19 21 19 16 27 30 29 28 31 27 27 22 21 16 9 6 6
33 43 37 32 32 35 36 32 31 29 26 23 23 22 29 40 25 21 21 23 20 22 22 21 23 21 23 24 21 21 21 18 19 28 27 31 29 23 24 19 20 16 14 13 13
41 43 42 35 31 33 35 31 30 27 24 22 22 24 32 33 22 21 18 23 17 19 22 20 18 21 20 25 23 23 25 23 19 16 28 26 35 32 25 20 21 20 21 18 20
31 34 38 34 31 33 33 30 29 26 23 21 20 24 37 26 19 20 16 20 18 16 18 19 18 19 23 17 21 23 24 26 22 19 27 25 41 35 28 24 23 23 26 23 22
25 34 37 32 32 34 31 29 27 25 21 19 21 25 35 21 27 21 17 21 19 18 17 17 19 25 25 25 26 27 31 29 29 24 26 29 35 35 29 29 29 25 28 27 30
25 32 38 33 34 34 31 30 26 23 20 18 22 26 30 33 22 19 18 16 20 17 21 23 25 30 31 30 34 33 33 32 31 28 28 37 39 36 31 32 34 30 29 32 33
21 30 37 34 33 35 33 30 29 23 27 30 36 32 27 20 17 20 16 16 17 25 33 27 33 36 33 33 31 29 32 37 35 33 33 37 42 42 37 35 39 36 35 36 37
20 22 38 38 34 36 38 30 29 22 32 24 24 21 18 19 23 20 16 22 29 36 30 34 44 33 30 30 34 33 33 35 35 34 35 40 40 39 36 34 41 42 41 40 38
25 24 35 36 34 35 38 32 20 23 23 22 24 21 21 20 24 25 19 16 28 32 35 40 33 33 33 34 35 38 36 32 37 30 32 35 46 40 36 37 40 41 43 41 40
27 23 29 39 36 36 36 33 29 21 27 30 28 20 19 18 23 22 21 17 23 32 30 36 34 31 35 42 35 41 30 32 31 32 36 28 48 35 37 44 36 46 42 44 41
26 31 28 44 33 38 32 33 29 31 37 21 24 21 20 22 19 26 24 21 26 25 26 36 30 34 41 38 30 35 25 32 33 35 37 34 38 37 30 40 43 39 45 44 41
25 29 28 34 34 34 31 31 29 34 45 27 25 26 25 26 22 23 24 20 19 21 26 27 22 28 34 27 26 21 25 30 33 35 46 42 38 42 34 39 42 37 41 48 44
27 31 35 30 38 34 34 34 34 43 26 31 31 29 30 30 25 27 28 27 28 32 37 31 30 25 23 29 25 25 28 36 40 43 48 36 40 47 32 35 38 40 38 47 45
29 30 34 32 34 36 36 36 45 39 32 20 24 27 32 28 28 27 29 31 26 25 26 34 42 33 25 28 30 30 29 39 46 46 49 34 44 47 36 40 28 31 34 42 44
29 32 38 37 40 38 39 46 44 37 29 23 21 28 31 32 28 27 32 35 28 26 30 32 38 22 25 26 23 28 39 31 37 34 43 43 46 46 41 36 36 35 34 39 43
31 34 43 36 40 42 42 44 35 30 27 24 26 30 32 32 28 28 29 31 30 29 29 26 32 29 26 26 28 29 26 38 42 52 54 46 47 44 36 42 37 33 34 40 37
30 36 34 37 39 43 48 42 35 25 27 29 26 27 31 29 29 28 26 27 28 25 27 26 26 27 26 30 33 30 32 33 36 43 54 59 53 34 42 41 38 33 36 37 36
29 40 31 36 43 46 47 42 33 28 31 31 31 31 25 24 27 25 28 28 21 28 29 26 26 31 32 31 31 35 34 33 42 48 46 50 57 26 26 31 37 38 37 32 31
32 37 29 42 43 47 43 42 33 34 38 35 31 31 23 24 30 28 32 31 21 24 32 26 31 34 33 33 31 36 36 36 36 37 50 53 61 35 40 37 30 33 32 28 26
30 40 37 37 39 38 45 51 42 37 39 34 27 20 19 23 26 25 33 29 25 25 26 25 30 38 44 40 30 37 37 37 38 45 49 48 51 35 32 36 36 32 27 26 25
28 32 30 38 54 37 42 46 47 44 38 29 29 29 29 28 26 29 27 28 29 24 24 27 36 35 36 34 31 33 37 38 41 43 44 56 55 49 48 45 40 34 27 24 24
28 29 30 36 33 48 46 44 52 42 33 37 31 30 29 29 30 27 24 27 30 28 28 29 34 32 41 34 34 36 32 31 37 47 45 59 61 38 37 35 35 31 25 24 24
24 26 30 31 36 42 48 47 49 39 36 33 33 29 34 36 31 29 24 25 24 27 30 31 34 31 40 33 32 41 33 29 33 34 38 50 59 38 43 41 40 33 28 29 29
Wind_Direction
229 229 227 226 226 224 225 227 226 226 226 225 227 228 232 240 252 245 242 253 254 253 261 258 270 286 280 271 300 314 270 267 265 270 273 280 278 286 294 323 305 313 313 256 114
228 224 225 225 224 224 223 225 223 225 226 225 226 231 233 241 245 244 251 256 253 251 253 255 259 267 269 281 292 303 265 266 270 270 272 283 276 279 282 293 292 296 281 288 118
218 217 223 222 224 224 221 222 223 221 222 224 226 229 230 234 245 245 245 253 251 250 254 258 259 264 265 276 279 287 275 282 261 276 278 276 280 277 274 277 279 307 297 121 145
218 217 215 218 221 221 219 218 217 216 219 222 223 224 224 229 242 255 239 245 251 252 251 253 258 255 262 263 273 278 275 282 258 278 273 270 282 273 269 273 269 271 254 176 151
220 218 215 213 216 215 215 213 211 211 214 217 218 217 225 235 241 268 238 235 247 247 246 249 249 257 254 261 269 273 276 271 270 278 278 273 268 271 264 268 272 268 260 239 219
214 215 216 210 211 210 208 208 207 208 211 213 212 212 232 235 252 262 246 231 242 243 245 249 253 257 262 262 257 273 272 277 278 276 273 269 268 272 270 267 269 265 261 256 249
214 215 217 212 208 206 200 201 202 203 206 206 208 225 234 236 253 257 252 230 236 245 243 255 259 254 264 262 266 269 270 276 270 277 271 279 261 259 267 271 267 265 259 256 251
217 212 210 208 207 200 193 187 194 194 198 198 214 232 238 247 261 250 246 232 234 247 254 256 259 256 261 265 268 265 269 267 271 274 269 275 260 258 261 264 266 263 255 255 252
227 208 211 207 202 192 189 190 191 191 192 200 222 236 239 250 244 245 243 227 228 243 258 263 258 253 255 256 263 262 264 263 270 270 269 267 269 261 261 259 260 262 255 253 249
231 209 209 204 196 188 187 183 186 181 194 216 232 235 241 237 236 238 240 219 226 231 247 253 253 249 250 246 255 262 260 266 264 270 268 263 265 264 265 259 257 259 256 252 249
222 210 206 201 191 183 183 172 186 208 203 224 222 235 234 230 231 234 224 220 225 234 237 247 245 241 246 249 258 266 265 265 270 266 272 268 269 260 264 263 255 255 255 252 249
234 223 205 202 189 181 194 204 195 205 209 233 217 240 237 225 229 220 214 232 227 233 239 247 245 249 251 255 255 262 266 269 273 273 268 268 272 263 266 268 256 253 252 252 252
230 229 210 199 187 188 197 205 191 180 219 233 218 232 225 225 228 219 215 236 228 234 237 243 256 249 250 253 255 258 263 271 271 277 272 274 268 266 265 266 259 256 253 254 253
226 228 214 199 192 194 203 202 196 206 226 227 218 232 227 222 232 226 224 230 241 237 238 251 250 247 249 251 253 257 265 269 275 272 267 271 267 266 260 260 263 252 254 252 254
225 224 216 202 199 195 200 198 206 214 226 212 218 227 223 217 220 225 228 246 235 238 242 249 249 251 249 254 249 259 269 267 269 270 272 269 274 273 265 260 258 256 253 254 256
231 223 215 210 206 197 189 192 205 221 233 231 221 221 216 231 233 220 222 249 241 245 250 255 266 250 254 254 249 254 268 272 269 270 265 264 266 272 264 262 263 263 257 253 256
227 219 212 215 202 188 185 196 212 224 224 231 222 214 214 227 231 217 217 229 237 241 245 252 255 262 258 253 251 246 250 260 261 260 263 270 263 265 279 275 269 265 262 255 257
226 220 216 220 203 183 185 200 219 221 221 233 219 208 221 217 232 225 221 229 235 241 243 245 251 249 250 253 257 242 242 254 261 263 264 271 266 265 273 272 282 275 270 261 259
226 220 215 219 207 186 190 205 222 218 219 218 201 208 226 220 231 226 224 228 226 225 249 249 255 268 252 254 244 254 249 257 266 275 268 266 269 271 269 275 273 274 274 265 261
220 218 215 218 206 188 198 215 226 220 210 200 223 218 216 207 224 219 219 228 232 230 247 261 260 262 255 254 257 253 249 256 258 260 263 268 267 265 269 267 275 278 275 268 268
221 217 220 215 202 198 207 216 221 220 201 214 225 224 225 207 226 215 225 255 218 227 246 252 261 267 254 249 248 253 252 257 261 259 262 264 267 278 272 275 278 280 278 274 264
224 215 222 210 208 213 212 216 217 215 218 227 229 231 217 206 228 223 229 239 228 227 234 250 262 262 258 263 258 256 255 248 257 256 263 266 265 290 289 285 281 282 282 278 269
225 220 229 211 213 214 217 219 224 217 219 222 229 234 233 225 239 242 246 245 238 223 229 239 255 258 264 265 261 254 253 252 255 264 258 262 264 272 272 282 290 294 295 281 272
229 220 223 221 223 216 216 216 221 224 224 230 237 233 228 232 244 242 246 245 239 234 244 232 254 251 255 263 261 259 258 259 254 257 259 261 265 273 275 276 282 293 301 287 273
235 230 230 225 220 221 220 220 219 222 230 231 239 231 234 242 233 249 243 246 244 239 238 234 242 252 261 266 264 261 260 259 256 258 260 260 262 264 265 272 277 287 295 292 276
235 232 233 234 235 227 227 226 222 226 226 226 234 228 231 239 235 241 242 247 244 243 237 245 253 251 258 268 264 265 262 263 257 258 264 259 258 270 272 277 278 282 287 286 278
248 245 239 239 240 235 229 225 225 223 237 229 229 231 236 245 246 251 252 253 253 236 237 239 247 254 257 262 264 261 258 263 265 260 262 261 250 273 272 273 274 278 276 277 276